RH
16 10 14 30 49 73 90 95 96 95 87 91 91 87 69 76 65 68 53 31 13 3 3 7 5 4 4 4 4 4 8 9 9
18 27 18 17 26 50 78 89 94 96 97 85 84 80 72 77 67 54 43 41 24 15 4 4 7 8 7 4 3 4 6 9 9
45 44 33 31 22 27 51 77 95 97 95 85 72 71 71 77 56 47 39 34 32 24 14 8 3 5 8 8 5 3 5 9 10
61 54 57 44 40 30 32 51 89 96 96 93 85 72 75 80 75 58 50 43 36 30 24 12 10 6 3 4 6 3 4 9 11
56 71 70 51 53 55 43 56 66 93 96 96 93 80 71 71 72 70 58 42 40 35 30 20 10 7 5 3 3 3 4 7 11
31 46 66 45 50 62 69 65 78 96 97 96 96 93 91 73 68 75 70 60 33 32 27 22 18 8 4 3 3 3 4 6 10
26 30 53 49 52 58 77 86 74 95 96 96 96 96 98 96 82 91 77 77 53 31 24 20 13 8 6 4 4 4 4 7 8
16 20 24 26 53 62 66 97 96 96 96 96 96 96 95 99 93 98 88 79 71 51 31 16 13 8 6 6 5 4 5 5 7
11 13 11 11 9 22 41 64 80 92 95 96 96 96 96 97 96 97 100 95 74 64 50 21 14 12 7 7 6 6 6 5 5
11 11 10 9 8 7 8 19 18 41 76 71 94 96 96 96 96 94 88 99 90 87 75 33 20 15 11 8 7 7 7 6 6
13 12 12 11 10 10 10 9 9 14 26 52 97 96 96 97 96 98 97 96 92 94 93 59 29 33 34 17 11 9 8 8 7
16 14 13 13 12 13 13 12 16 19 39 96 96 95 94 97 97 96 98 96 97 97 96 86 44 35 56 40 32 30 25 24 21
18 16 15 15 14 14 14 14 15 16 27 96 76 58 77 93 96 97 98 96 96 98 96 96 80 50 61 48 45 48 53 54 55
22 20 18 17 16 17 20 18 16 15 19 18 92 54 40 72 96 96 97 96 97 89 96 96 96 86 90 95 86 78 75 87 94
22 23 23 22 17 17 19 20 17 15 16 14 18 20 24 57 95 96 96 95 93 95 97 94 98 97 96 97 97 97 96 96 96
35 24 23 34 38 24 19 21 24 30 24 17 18 28 36 80 90 95 96 96 95 94 97 95 97 96 95 95 97 97 97 96 96
71 55 57 31 41 42 26 30 42 38 50 34 28 32 84 94 96 96 96 96 96 95 97 98 96 97 95 97 96 97 97 97 97
59 87 79 76 56 61 43 36 41 49 57 60 39 47 80 90 91 90 96 96 96 97 96 96 96 96 96 96 96 96 97 97 96
68 96 98 95 96 95 84 51 47 53 59 60 50 42 92 45 64 88 96 96 95 96 98 97 95 97 96 97 95 97 96 97 96
60 73 81 99 97 91 98 92 88 71 62 63 68 64 62 56 52 48 54 94 97 97 97 96 97 97 96 96 96 97 96 96 96
Wind_Speed
12 16 21 26 30 26 22 18 26 30 27 27 25 24 23 22 21 18 17 16 15 16 16 16 17 17 15 14 15 14 12 10 9
12 12 17 23 29 31 25 21 12 29 30 28 26 26 24 22 21 20 19 18 17 17 18 18 18 18 17 15 14 14 13 11 10
14 13 13 19 25 29 31 27 18 25 32 28 25 25 24 23 21 20 20 19 18 17 18 18 18 19 19 17 16 16 15 13 12
18 18 15 15 21 27 30 28 26 20 20 23 27 24 24 24 23 21 20 20 20 19 19 19 19 19 19 19 19 18 17 16 14
22 20 18 17 20 23 26 29 31 29 24 22 26 29 28 26 25 23 21 21 21 20 20 20 20 20 20 20 20 20 20 19 17
22 22 21 21 21 22 24 29 31 28 27 27 27 25 27 30 28 25 26 24 24 22 23 22 21 21 21 22 21 21 21 20 18
24 23 23 25 22 22 23 23 26 31 31 27 27 27 27 29 32 34 31 27 26 24 24 24 23 23 22 22 22 22 22 22 19
27 25 24 25 27 25 27 29 24 25 25 35 29 26 28 29 28 30 37 31 28 28 26 25 25 25 24 23 23 23 23 21 21
30 28 27 27 27 29 28 30 28 30 31 23 33 32 30 31 30 31 29 34 32 32 30 28 27 26 25 24 24 24 23 22 23
32 31 28 28 27 26 27 26 25 25 28 32 33 36 37 35 31 32 28 31 38 36 34 31 28 28 26 26 26 25 25 24 24
33 33 31 30 30 29 27 22 22 23 27 27 28 32 37 40 35 32 34 30 29 40 39 34 32 31 29 29 28 27 26 26 26
36 35 34 34 33 32 31 29 24 27 26 28 41 21 22 42 39 42 39 39 33 37 43 38 36 35 33 32 30 31 30 29 29
41 38 37 36 36 34 33 33 29 25 33 43 22 26 28 26 40 41 39 39 36 37 46 40 37 35 34 33 33 33 32 32 32
45 42 40 39 37 36 34 34 31 25 27 31 30 29 31 32 42 42 44 41 38 36 46 37 36 37 35 35 35 34 33 32 31
48 47 44 42 40 39 38 35 33 32 32 30 30 31 34 27 37 42 43 40 37 37 43 39 35 33 34 36 37 35 35 34 33
51 50 48 45 43 41 41 40 35 32 33 32 32 31 32 30 30 47 45 45 42 41 38 45 41 36 32 34 39 40 40 40 39
50 47 46 48 44 43 42 40 38 36 32 32 31 31 23 24 22 31 49 45 41 41 42 45 43 32 47 45 39 44 45 43 42
49 37 44 50 47 48 46 42 41 40 39 35 34 28 26 22 31 22 31 51 43 43 40 41 39 36 52 46 43 46 46 44 43
63 46 43 37 34 46 43 44 42 43 42 38 37 33 36 28 24 26 33 33 50 46 48 43 48 54 42 49 47 42 40 43 42
66 64 60 54 38 43 46 47 45 45 46 41 36 32 32 35 31 29 29 32 44 48 40 45 49 43 38 45 45 42 39 45 42
Wind_Direction
221 210 206 208 216 219 224 205 224 206 190 185 184 190 194 198 197 204 203 197 194 193 195 201 199 199 192 190 184 182 174 163 150
232 224 219 208 216 224 224 232 218 205 189 184 185 185 192 197 199 201 204 203 199 199 194 197 199 205 201 198 190 188 185 181 170
239 242 233 224 215 223 227 222 231 218 196 187 187 188 191 195 200 201 202 207 205 203 200 203 203 204 202 204 202 198 196 191 184
236 244 239 237 229 221 225 224 231 212 216 199 195 195 196 199 202 206 208 209 210 207 205 204 207 206 202 201 203 203 200 197 193
223 230 236 235 233 228 220 225 230 233 234 214 203 204 202 205 205 207 212 214 216 213 211 206 208 209 201 205 205 205 204 203 196
224 225 229 235 232 229 224 225 227 234 233 222 215 214 215 211 213 209 220 216 221 214 213 210 209 214 207 206 208 207 208 207 201
229 224 223 231 232 231 225 227 235 233 240 238 224 219 224 227 222 216 219 218 223 222 216 213 210 213 211 210 208 210 211 208 204
227 229 227 228 230 230 232 237 243 247 247 241 233 214 219 221 226 228 226 215 220 228 223 217 213 214 212 210 209 210 211 208 209
234 226 228 234 234 234 237 241 250 258 251 254 242 217 214 221 232 236 237 228 223 226 226 224 214 213 214 213 212 211 211 210 213
238 237 227 231 239 240 242 246 248 246 258 263 247 224 223 225 221 226 230 234 220 222 226 221 219 218 216 217 216 214 216 214 216
235 240 240 230 233 241 244 239 245 251 247 262 237 228 226 221 226 221 230 231 238 222 221 221 221 220 221 221 221 219 219 220 220
235 236 239 242 235 234 243 247 247 251 253 246 217 249 262 223 222 225 218 230 236 226 221 220 222 224 226 226 226 223 223 223 224
233 234 235 239 244 238 237 245 250 253 258 230 252 277 281 264 239 212 216 228 233 234 220 218 221 223 228 230 231 228 228 227 228
233 232 234 234 238 246 242 243 246 245 239 244 239 255 257 269 226 220 222 225 227 225 217 210 218 224 227 230 231 231 232 225 226
234 234 232 233 234 239 244 243 240 240 243 245 242 252 250 260 235 223 217 222 219 217 226 211 216 224 226 223 225 225 223 223 221
237 237 234 234 232 235 239 245 243 242 240 241 245 253 259 238 226 226 224 216 217 221 231 217 218 223 222 238 227 221 224 226 224
235 235 235 237 237 236 234 241 242 239 236 233 243 247 238 226 218 222 214 215 217 221 228 219 216 215 227 198 215 218 222 221 222
231 228 238 240 231 239 234 233 240 240 237 234 236 243 225 232 246 239 217 214 215 211 225 227 209 210 216 203 201 207 205 216 223
221 214 216 222 226 229 238 237 233 239 239 237 241 237 234 247 231 227 215 224 214 214 219 222 206 208 198 210 208 210 226 227 229
224 229 227 224 219 229 237 237 238 233 232 241 236 234 234 238 235 228 236 229 215 211 221 208 208 209 224 221 224 228 226 230 241